TimeEDT,TemperatureF,Dew PointF,Humidity,Sea Level PressureIn,VisibilityMPH,Wind Direction,Wind SpeedMPH,Gust SpeedMPH,PrecipitationIn,Events,Conditions,WindDirDegrees,DateUTC
12:53 AM,73.9,69.1,85,29.93,10.0,Variable,3.5,-,N/A,,Unknown,0,2013-07-24 04:53:00
1:53 AM,73.9,69.1,85,29.93,10.0,Calm,Calm,-,N/A,,Unknown,0,2013-07-24 05:53:00
2:08 AM,73.4,69.8,88,29.91,10.0,NW,3.5,-,N/A,,Mostly Cloudy,320,2013-07-24 06:08:00
2:36 AM,73.4,69.8,88,29.91,-9999.0,Calm,Calm,-,N/A,,Unknown,0,2013-07-24 06:36:00
2:53 AM,73.9,69.1,85,29.93,10.0,Calm,Calm,-,N/A,,Unknown,0,2013-07-24 06:53:00
3:53 AM,-9999,-9999,N/A,29.91,-9999.0,North,-9999.0,-,N/A,,Unknown,0,2013-07-24 07:53:00
4:53 AM,-9999,-9999,N/A,29.88,-9999.0,North,-9999.0,-,N/A,Rain,Light Rain,0,2013-07-24 08:53:00
5:31 AM,73.4,69.8,88,29.89,10.0,Calm,Calm,-,N/A,,Overcast,0,2013-07-24 09:31:00
5:53 AM,73.0,69.1,87,29.90,9.0,Calm,Calm,-,N/A,Rain,Light Rain,0,2013-07-24 09:53:00
6:49 AM,73.4,69.8,88,29.90,8.0,Calm,Calm,-,0.00,,Overcast,0,2013-07-24 10:49:00
6:53 AM,73.0,69.1,87,29.92,8.0,Calm,Calm,-,0.00,,Overcast,0,2013-07-24 10:53:00
7:00 AM,73.4,69.8,88,29.91,10.0,Calm,Calm,-,N/A,,Unknown,0,2013-07-24 11:00:00
7:13 AM,73.4,69.8,88,29.90,10.0,Calm,Calm,-,0.00,Rain,Light Rain,0,2013-07-24 11:13:00
7:31 AM,73.4,69.8,88,29.91,-9999.0,North,-9999.0,-,0.00,,Unknown,0,2013-07-24 11:31:00
7:53 AM,73.9,70.0,87,29.94,6.0,Calm,Calm,-,0.00,,Overcast,0,2013-07-24 11:53:00
8:53 AM,75.0,70.0,84,29.94,6.0,West,3.5,-,N/A,,Haze,270,2013-07-24 12:53:00
9:53 AM,77.0,71.1,82,29.95,10.0,Calm,Calm,-,N/A,,Overcast,0,2013-07-24 13:53:00
10:53 AM,82.0,73.0,74,29.94,10.0,Variable,4.6,-,N/A,,Overcast,0,2013-07-24 14:53:00
11:53 AM,82.9,73.9,74,29.95,10.0,North,-9999.0,-,N/A,,Overcast,0,2013-07-24 15:53:00
12:00 PM,82.4,73.4,74,29.92,10.0,West,5.8,-,N/A,,Mostly Cloudy,270,2013-07-24 16:00:00
12:53 PM,-9999,-9999,N/A,29.91,10.0,West,5.8,-,N/A,,Mostly Cloudy,270,2013-07-24 16:53:00
1:53 PM,89.1,73.9,61,29.92,10.0,West,5.8,-,N/A,,Mostly Cloudy,270,2013-07-24 17:53:00
2:00 PM,89.6,73.4,59,29.89,10.0,Variable,3.5,-,N/A,,Mostly Cloudy,0,2013-07-24 18:00:00
2:53 PM,91.0,75.0,59,29.89,10.0,West,4.6,-,N/A,,Scattered Clouds,280,2013-07-24 18:53:00
3:53 PM,91.9,75.0,58,29.85,10.0,Variable,3.5,-,N/A,,Scattered Clouds,0,2013-07-24 19:53:00
4:53 PM,91.0,73.9,57,29.83,10.0,SSW,5.8,-,N/A,,Unknown,210,2013-07-24 20:53:00
5:15 PM,80.6,71.6,74,29.90,1.2,West,9.2,25.3,0.11,Rain,Heavy Rain,280,2013-07-24 21:15:00
5:20 PM,78.8,71.6,78,29.91,0.5,NW,9.2,20.7,0.33,Rain,Heavy Rain,310,2013-07-24 21:20:00
5:50 PM,75.2,71.6,89,29.88,2.5,Variable,5.8,-,0.72,Rain,Light Rain,0,2013-07-24 21:50:00
5:53 PM,75.9,72.0,87,29.90,5.0,Variable,5.8,-,0.72,Rain,Light Rain,0,2013-07-24 21:53:00
6:53 PM,75.9,71.1,85,29.93,6.0,WNW,8.1,-,0.00,Rain,Light Rain,290,2013-07-24 22:53:00
7:35 PM,75.2,71.6,89,29.91,2.0,NW,6.9,-,0.11,Rain,Heavy Rain,310,2013-07-24 23:35:00
7:51 PM,75.2,69.8,83,29.90,5.0,Variable,5.8,-,0.15,Rain,Light Rain,0,2013-07-24 23:51:00
7:53 PM,75.0,70.0,84,29.92,6.0,Variable,6.9,-,0.15,Rain,Light Rain,0,2013-07-24 23:53:00
8:53 PM,73.9,70.0,87,29.86,10.0,Calm,Calm,-,0.02,Rain,Light Rain,0,2013-07-25 00:53:00
9:53 PM,73.9,70.0,87,29.87,10.0,WSW,3.5,-,0.00,,Scattered Clouds,250,2013-07-25 01:53:00
10:53 PM,75.0,71.1,87,29.92,9.0,Calm,Calm,-,N/A,,Scattered Clouds,0,2013-07-25 02:53:00
11:09 PM,75.2,71.6,89,29.90,10.0,Calm,Calm,-,N/A,,Mostly Cloudy,0,2013-07-25 03:09:00
11:53 PM,75.0,71.1,87,29.90,8.0,Calm,Calm,-,N/A,,Mostly Cloudy,0,2013-07-25 03:53:00